Radiation Dose at Monitoring Post of Fukushima Daini Nuclear Power Station
Date,Time,MP-1(microSv/h),MP-2(microSv/h),MP-3(microSv/h),MP-4(microSv/h),MP-5(microSv/h),MP-6(microSv/h),MP-7(microSv/h),Wind Direction,Wind Velocity(m/s),Rain
2013/08/18,00:00,0.9,0.6,0.9,0.9,0.8,0.4,0.3,south-southwest,8.9,No
2013/08/18,00:10,0.9,0.6,0.9,0.9,0.8,0.4,0.3,south-southwest,8.5,No
2013/08/18,00:20,0.9,0.6,0.9,0.9,0.8,0.4,0.3,south-southwest,8.0,No
2013/08/18,00:30,0.9,0.6,0.9,0.9,0.8,0.4,0.3,south-southwest,8.1,No
2013/08/18,00:40,0.9,0.6,0.9,0.9,0.8,0.4,0.3,south-southwest,8.1,No
2013/08/18,00:50,0.9,0.6,0.9,0.9,0.8,0.4,0.3,south-southwest,7.6,No
2013/08/18,01:00,0.9,0.6,0.9,0.9,0.8,0.4,0.3,south-southwest,7.5,No
2013/08/18,01:10,0.9,0.6,0.9,0.9,0.8,0.4,0.3,south-southwest,7.2,No
2013/08/18,01:20,0.9,0.6,0.9,0.9,0.8,0.4,0.3,south-southwest,6.5,No
2013/08/18,01:30,0.9,0.6,0.9,0.9,0.8,0.4,0.3,south-southwest,6.2,No
2013/08/18,01:40,0.9,0.6,0.9,0.9,0.8,0.4,0.3,south-southwest,6.4,No
2013/08/18,01:50,0.9,0.6,0.9,0.9,0.8,0.4,0.3,south-southwest,5.9,No
2013/08/18,02:00,0.9,0.6,0.9,0.9,0.8,0.4,0.3,south-southwest,5.8,No
2013/08/18,02:10,0.9,0.6,0.9,0.9,0.8,0.4,0.3,south-southwest,5.8,No
2013/08/18,02:20,0.9,0.6,0.9,0.9,0.8,0.4,0.3,south-southwest,5.0,No
2013/08/18,02:30,0.9,0.6,0.9,0.9,0.8,0.4,0.3,south-southwest,3.9,No
2013/08/18,02:40,0.9,0.6,0.9,0.9,0.8,0.4,0.3,south-southwest,3.3,No
2013/08/18,02:50,0.9,0.6,0.9,0.9,0.8,0.4,0.3,south-southwest,3.1,No
2013/08/18,03:00,0.9,0.6,0.9,0.9,0.8,0.4,0.3,south-southwest,3.3,No
2013/08/18,03:10,0.9,0.6,0.9,0.9,0.8,0.4,0.3,south-southwest,4.0,No
2013/08/18,03:20,0.9,0.6,0.9,0.9,0.8,0.4,0.3,south-southwest,5.0,No
2013/08/18,03:30,0.9,0.6,0.9,0.9,0.8,0.4,0.3,south,4.5,No
2013/08/18,03:40,0.9,0.6,0.9,0.9,0.8,0.4,0.3,south,5.3,No
2013/08/18,03:50,0.9,0.6,0.9,0.9,0.8,0.4,0.3,south-southwest,4.7,No
2013/08/18,04:00,0.9,0.6,0.9,0.9,0.8,0.4,0.3,south-southwest,4.9,No
2013/08/18,04:10,0.9,0.6,0.9,0.9,0.8,0.4,0.3,south-southwest,5.6,No
2013/08/18,04:20,0.9,0.6,0.9,0.9,0.8,0.4,0.3,south-southwest,5.9,No
2013/08/18,04:30,0.9,0.6,0.9,0.9,0.8,0.4,0.3,south-southwest,7.0,No
2013/08/18,04:40,0.9,0.6,0.9,0.9,0.8,0.4,0.3,south-southwest,6.4,No
2013/08/18,04:50,0.9,0.6,0.9,0.9,0.8,0.4,0.3,south-southwest,6.4,No
2013/08/18,05:00,0.9,0.6,0.9,0.9,0.8,0.4,0.3,south-southwest,6.5,No
2013/08/18,05:10,0.9,0.6,0.9,0.9,0.8,0.4,0.3,south-southwest,6.8,No
2013/08/18,05:20,0.9,0.6,0.9,0.9,0.8,0.4,0.3,south-southwest,7.7,No
2013/08/18,05:30,0.9,0.6,0.9,0.9,0.8,0.4,0.3,south-southwest,8.6,No
2013/08/18,05:40,0.9,0.6,0.9,0.9,0.8,0.4,0.3,south-southwest,7.9,No
2013/08/18,05:50,0.9,0.6,0.9,0.9,0.8,0.4,0.3,south-southwest,7.0,No
2013/08/18,06:00,0.9,0.6,0.9,0.9,0.8,0.4,0.3,south-southwest,7.2,No
2013/08/18,06:10,0.9,0.6,0.9,0.9,0.8,0.4,0.3,south-southwest,7.0,No
2013/08/18,06:20,0.9,0.6,0.9,0.9,0.8,0.4,0.3,south-southwest,6.9,No
2013/08/18,06:30,0.9,0.6,0.9,0.9,0.8,0.4,0.3,south-southwest,6.0,No
2013/08/18,06:40,0.9,0.6,0.9,0.9,0.8,0.4,0.3,south-southwest,5.3,No
2013/08/18,06:50,0.9,0.6,0.9,0.9,0.8,0.4,0.3,south-southwest,5.0,No
2013/08/18,07:00,0.9,0.6,0.9,0.9,0.8,0.4,0.3,south-southwest,5.3,No
2013/08/18,07:10,0.9,0.6,0.9,0.9,0.8,0.4,0.3,south-southwest,5.4,No
2013/08/18,07:20,0.9,0.6,0.9,0.9,0.8,0.4,0.3,south-southwest,4.5,No
2013/08/18,07:30,0.9,0.6,0.9,0.9,0.8,0.4,0.3,south-southwest,4.8,No
2013/08/18,07:40,0.9,0.6,0.9,0.9,0.8,0.4,0.3,south-southwest,4.5,No
2013/08/18,07:50,0.9,0.6,0.9,0.9,0.8,0.4,0.3,south-southwest,5.3,No
2013/08/18,08:00,0.9,0.6,0.9,0.9,0.8,0.4,0.3,south-southwest,5.2,No
2013/08/18,08:10,0.9,0.6,0.9,0.9,0.8,0.4,0.3,south-southwest,5.1,No
2013/08/18,08:20,0.9,0.6,0.9,0.9,0.8,0.4,0.3,south-southwest,5.0,No
2013/08/18,08:30,0.9,0.6,0.9,0.9,0.8,0.4,0.3,south,4.5,No
2013/08/18,08:40,0.9,0.6,0.9,0.9,0.8,0.4,0.3,south-southwest,5.0,No
2013/08/18,08:50,0.9,0.6,0.9,0.9,0.8,0.4,0.3,south,5.4,No
2013/08/18,09:00,0.9,0.6,0.9,0.9,0.8,0.4,0.3,south,4.8,No
2013/08/18,09:10,0.9,0.6,0.9,0.9,0.8,0.4,0.3,south,4.6,No
2013/08/18,09:20,0.9,0.6,0.9,0.9,0.8,0.4,0.3,south,4.6,No
2013/08/18,09:30,0.9,0.6,0.9,0.9,0.8,0.4,0.3,south,5.8,No
2013/08/18,09:40,0.9,0.6,0.9,0.9,0.8,0.4,0.3,south,5.5,No
2013/08/18,09:50,0.9,0.6,0.9,0.9,0.8,0.4,0.3,south,5.4,No
2013/08/18,10:00,0.9,0.6,0.9,0.9,0.8,0.4,0.3,south,5.1,No
2013/08/18,10:10,0.9,0.6,0.9,0.9,0.8,0.4,0.3,south,5.6,No
2013/08/18,10:20,0.9,0.6,0.9,0.9,0.8,0.4,0.3,south,5.6,No
2013/08/18,10:30,0.9,0.6,0.9,0.9,0.8,0.4,0.3,south,5.4,No
2013/08/18,10:40,0.9,0.6,0.9,0.9,0.8,0.4,0.3,south,6.1,No
2013/08/18,10:50,0.9,0.6,0.9,0.9,0.8,0.4,0.3,south,7.6,No
2013/08/18,11:00,0.9,0.6,0.9,0.9,0.8,0.4,0.3,south,7.8,No
2013/08/18,11:10,0.9,0.6,0.9,0.9,0.8,0.4,0.3,south,9.4,No
2013/08/18,11:20,0.9,0.6,0.9,0.9,0.8,0.4,0.3,south,7.8,No
2013/08/18,11:30,0.9,0.6,0.9,0.9,0.8,0.4,0.3,south,7.2,No
2013/08/18,11:40,0.9,0.6,0.9,0.9,0.8,0.4,0.3,south,8.5,No
2013/08/18,11:50,0.9,0.6,0.9,0.9,0.8,0.4,0.3,south,8.3,No
2013/08/18,12:00,0.9,0.6,0.9,0.9,0.8,0.4,0.3,south,9.2,No
2013/08/18,12:10,0.9,0.6,0.9,0.9,0.8,0.4,0.3,south,8.6,No
2013/08/18,12:20,0.9,0.6,0.9,0.9,0.8,0.4,0.3,south,10.0,No
2013/08/18,12:30,0.9,0.6,0.9,0.9,0.8,0.4,0.3,south,9.5,No
2013/08/18,12:40,0.9,0.6,0.9,0.9,0.8,0.4,0.3,south,9.5,No
2013/08/18,12:50,0.9,0.6,0.9,0.9,0.8,0.4,0.3,south,9.8,No
2013/08/18,13:00,0.9,0.6,0.9,0.9,0.8,0.4,0.3,south,9.1,No
2013/08/18,13:10,0.9,0.6,0.9,0.9,0.8,0.4,0.3,south,9.1,No
2013/08/18,13:20,0.9,0.6,0.9,0.9,0.8,0.4,0.3,south,10.1,No
2013/08/18,13:30,0.9,0.6,0.9,0.9,0.8,0.4,0.3,south,10.4,No
2013/08/18,13:40,0.9,0.6,0.9,0.9,0.8,0.4,0.3,south,11.0,No
2013/08/18,13:50,0.9,0.6,0.9,0.9,0.8,0.4,0.3,south,10.8,No
2013/08/18,14:00,0.9,0.6,0.9,0.9,0.8,0.4,0.3,south,9.8,No
2013/08/18,14:10,0.9,0.6,0.9,0.9,0.8,0.4,0.3,south,10.0,No
2013/08/18,14:20,0.9,0.6,0.9,0.9,0.8,0.4,0.3,south,10.0,No
2013/08/18,14:30,0.9,0.6,0.9,0.9,0.8,0.4,0.3,south,10.5,No
2013/08/18,14:40,0.9,0.6,0.9,0.9,0.8,0.4,0.3,south,9.4,No
2013/08/18,14:50,0.9,0.6,0.9,0.9,0.8,0.4,0.3,south,8.9,No
2013/08/18,15:00,0.9,0.6,0.9,0.9,0.8,0.4,0.3,south,8.3,No
2013/08/18,15:10,0.9,0.6,0.9,0.9,0.8,0.4,0.3,south,8.7,No
2013/08/18,15:20,0.9,0.6,0.9,0.9,0.8,0.4,0.3,south-southwest,8.9,No
2013/08/18,15:30,0.9,0.6,0.9,0.9,0.8,0.4,0.3,south-southwest,8.4,No
2013/08/18,15:40,0.9,0.6,0.9,0.9,0.8,0.4,0.3,south-southwest,8.2,No
2013/08/18,15:50,0.9,0.6,0.9,0.9,0.8,0.4,0.3,south-southwest,8.1,No
2013/08/18,16:00,0.9,0.6,0.9,0.9,0.8,0.4,0.3,south-southwest,8.4,No
2013/08/18,16:10,0.9,0.6,0.9,0.9,0.8,0.4,0.3,south-southwest,8.2,No
2013/08/18,16:20,0.9,0.6,0.9,0.9,0.8,0.4,0.3,south-southwest,6.3,No
2013/08/18,16:30,0.9,0.6,0.9,0.9,0.8,0.4,0.3,south-southwest,8.3,No
2013/08/18,16:40,0.9,0.6,0.9,0.9,0.8,0.4,0.3,south-southwest,5.8,No
2013/08/18,16:50,0.9,0.6,0.9,0.9,0.8,0.4,0.3,south-southwest,6.2,No
2013/08/18,17:00,0.9,0.6,0.9,0.9,0.8,0.4,0.3,south-southwest,6.2,No
2013/08/18,17:10,0.9,0.6,0.9,0.9,0.8,0.4,0.3,south-southwest,6.4,No
2013/08/18,17:20,0.9,0.6,0.9,0.9,0.8,0.4,0.3,south-southwest,7.4,No
2013/08/18,17:30,0.9,0.6,0.9,0.9,0.8,0.4,0.3,south-southwest,7.8,No
2013/08/18,17:40,0.9,0.6,0.9,0.9,0.8,0.4,0.3,south-southwest,8.3,No
2013/08/18,17:50,0.9,0.6,0.9,0.9,0.8,0.4,0.3,south-southwest,8.6,No
2013/08/18,18:00,0.9,0.6,0.9,0.9,0.8,0.4,0.3,south-southwest,7.9,No
2013/08/18,18:10,0.9,0.6,0.9,0.9,0.8,0.4,0.3,south-southwest,8.1,No
2013/08/18,18:20,0.9,0.6,0.9,0.9,0.8,0.4,0.3,south-southwest,7.8,No
2013/08/18,18:30,0.9,0.6,0.9,0.9,0.8,0.4,0.3,south-southwest,7.9,No
2013/08/18,18:40,0.9,0.6,0.9,0.9,0.8,0.4,0.3,south-southwest,7.0,No
2013/08/18,18:50,0.9,0.6,0.9,0.9,0.8,0.4,0.3,south-southwest,9.5,No
2013/08/18,19:00,0.9,0.6,0.9,0.9,0.8,0.4,0.3,south-southwest,9.3,No
2013/08/18,19:10,0.9,0.6,0.9,0.9,0.8,0.4,0.3,south-southwest,9.3,No
2013/08/18,19:20,0.9,0.6,0.9,0.9,0.8,0.4,0.3,south-southwest,8.0,No
2013/08/18,19:30,0.9,0.6,0.9,0.9,0.8,0.4,0.3,south-southwest,8.0,No
2013/08/18,19:40,0.9,0.6,0.9,0.9,0.8,0.4,0.3,south-southwest,7.0,No
2013/08/18,19:50,0.9,0.6,0.9,0.9,0.8,0.4,0.3,south-southwest,7.8,No
2013/08/18,20:00,0.9,0.6,0.9,0.9,0.8,0.4,0.3,south-southwest,7.3,No
2013/08/18,20:10,0.9,0.6,0.9,0.9,0.8,0.4,0.3,south-southwest,7.9,No
2013/08/18,20:20,0.9,0.6,0.9,0.9,0.8,0.4,0.3,south-southwest,7.3,No
2013/08/18,20:30,0.9,0.6,0.9,0.9,0.8,0.4,0.3,south-southwest,7.2,No
2013/08/18,20:40,0.9,0.6,0.9,0.9,0.8,0.4,0.3,south-southwest,7.4,No
2013/08/18,20:50,0.9,0.6,0.9,0.9,0.8,0.4,0.3,south-southwest,7.3,No
2013/08/18,21:00,0.9,0.6,0.9,0.9,0.8,0.4,0.3,south-southwest,7.1,No
2013/08/18,21:10,0.9,0.6,0.9,0.9,0.8,0.4,0.3,south-southwest,7.5,No
2013/08/18,21:20,0.9,0.6,0.9,0.9,0.8,0.4,0.3,south-southwest,7.9,No
2013/08/18,21:30,0.9,0.6,0.9,0.9,0.8,0.4,0.3,south-southwest,8.1,No
2013/08/18,21:40,0.9,0.6,0.9,0.9,0.8,0.4,0.3,south-southwest,7.5,No
2013/08/18,21:50,0.9,0.6,0.9,0.9,0.8,0.4,0.3,south-southwest,7.2,No
2013/08/18,22:00,0.9,0.6,0.9,0.9,0.8,0.4,0.3,south-southwest,8.6,No
2013/08/18,22:10,0.9,0.6,0.9,0.9,0.8,0.4,0.3,south-southwest,8.1,No
2013/08/18,22:20,0.9,0.6,0.9,0.9,0.8,0.4,0.3,south-southwest,8.1,No
2013/08/18,22:30,0.9,0.6,0.9,0.9,0.8,0.4,0.3,south-southwest,8.1,No
2013/08/18,22:40,0.9,0.6,0.9,0.9,0.8,0.4,0.3,south-southwest,7.0,No
2013/08/18,22:50,0.9,0.6,0.9,0.9,0.8,0.4,0.3,south-southwest,6.9,No
2013/08/18,23:00,0.9,0.6,0.9,0.9,0.8,0.4,0.3,south-southwest,6.8,No
2013/08/18,23:10,0.9,0.6,0.9,0.9,0.8,0.4,0.3,southwest,6.9,No
2013/08/18,23:20,0.9,0.6,0.9,0.9,0.8,0.4,0.3,southwest,5.9,No
2013/08/18,23:30,0.9,0.6,0.9,0.9,0.8,0.4,0.3,southwest,5.3,No
2013/08/18,23:40,0.9,0.6,0.9,0.9,0.8,0.4,0.3,south-southwest,5.3,No
2013/08/18,23:50,0.9,0.6,0.9,0.9,0.8,0.4,0.3,southwest,5.8,No
